THORAD DELTA 1 DEB, 8161

Orbit data source: Space-Track

THORAD DELTA 1 DEB, 8161 is space debris in LEO originally from a launch on Fri, 15 Nov 1974 UTC launched from the Air Force Western Test Range (AFWTR). Debris objects in space refer to the collection of defunct objects orbiting the Earth. Examples of debris include non-operational satellites, rocket bodies, and fragments generated from explosions, collisions, or faulty payload assembly.

Loading next visibility...
Identifier
8161, 1974-089AB
Orbit
LEO
Country
Flag of USUS
Related business
Manufacturer
Unknown
Mission
Spacecraft
Bus & Motor
Unknown
Mass
Unknown
Launch date (UTC)
1974-11-15 (51 years ago)
Launch vehicle
Unknown
Launch site
Air Force Western Test Range (AFWTR)
Object type
Payload
Rocket body
Debris
Shape & HBR
Unknown shape, 0.1 m
Radar Cross Section
Small (<0.1 m²)

Expand to show TLE details & history
Last TLE update: 6 days ago

TLE from 6 days ago
0 THORAD DELTA 1 DEB
1 08161U 74089AB  25295.42748811  .00000796  00000-0  84608-2 0  9992
2 08161 101.2307 358.6711 0375237 217.2496 153.4189 11.99436652559186
Epoch: 2025-10-22T10:15Z
TLE epoch observation values (Epoch: 2025-10-22T10:15:34.972Z)
Latitude
12.23577°
Longitude
171.21759°
Altitude
1,957.889 km
Speed
6.799 km/s
True Right ascension
23h 44m 51s
True Declination
12° 10' 30"
Sunlit
Object was in full shadow at epoch
Visualization orbit readout
Latitude
Unknown
Longitude
Unknown
Altitude
Unknown
Speed
Unknown
Apparent Right ascension
Unknown
Apparent Declination
Unknown
Sunlit
N/A
Visualization observer readout
Local Sidereal Time
04:08:18
Azimuth
Unknown
Elevation
Unknown
Doppler factor
Unknown
Orbital elements
Apogee altitude
1,983.37 km
Perigee altitude
1,378.556 km
Semi-major axis
8,059.1 km
Eccentricity
0.03752
Inclination
101.2307°
RAAN
358.6711°
Arg. of periapsis
217.2496°
True anomaly
155.26506°
Mean anomaly
153.4189°
Eccentric anomaly
154.34957°
Mean motion
2.99995 °/min
Orbital period
120 mins
BSTAR
0.0084608
Loading maneuver chart data...
Computing Atmospheric mass density...

Documentation

Showing up to 5 results
|